UmKA 1 (RS40S)
1 57172U 23091G   26014.62616408  .00003813  00000-0  18697-3 0  9992
2 57172  97.5298  73.9516 0012033 298.0567  61.9450 15.18680449140681
CubeBel-2 (EU11S)
1 57175U 23091K   26014.60484355  .00006185  00000-0  25037-3 0  9998
2 57175  97.5295  76.7236 0009515 300.3023  59.7273 15.25024167140861
RS-38S
1 57189U 23091Z   26014.60429383  .00009490  00000-0  32379-3 0  9992
2 57189  97.5320  81.4594 0006901 255.9461 104.1013 15.30539188141152
SONATE-2
1 59112U 24043Q   26014.59628821  .00017067  00000-0  33733-3 0  9998
2 59112  97.5331 157.1282 0009001  48.5482 311.6539 15.47156626104056
MO-122
1 60209U 24125G   26014.50941907  .00019988  00000-0  37316-3 0  9997
2 60209  97.2502 229.9568 0015689  65.0422 295.2457 15.48671322 85672
GRBBeta
1 60237U 24128C   26014.44149344  .00002259  00000-0  16796-3 0  9991
2 60237  61.9910  35.1222 0055012 102.7890 257.9358 15.05110606 83118
Curium One
1 60242U 24128H   26014.59163461  .00003920  00000-0  24848-3 0  9992
2 60242  61.9802  28.6665 0054935  99.3870 261.3440 15.09543619 83247
ROBUSTA-3A
1 60243U 24128J   26014.41129543  .00004380  00000-0  28116-3 0  9990
2 60243  61.9879  30.9869 0055216  96.7759 263.9622 15.08849000 83190
CatSat
1 60246U 24125J   26014.51329593  .00022314  00000-0  49234-3 0  9999
2 60246  97.2283 226.6025 0032909  29.9220 330.3900 15.43312397 83570
HYPERVIEW-1G (RS66S)
1 61772U 24199AP  26014.61608586  .00026968  00000-0  46366-3 0  9990
2 61772  97.3183 249.5330 0011367 111.8145 248.4318 15.51025501110705
AO-123
1 61781U 24199AY  26014.65002183  .00005858  00000-0  18703-3 0  9994
2 61781  97.3232 244.7534 0015498 133.0559 227.1984 15.32751106110380
ZIMSAT 2
1 61783U 24199BA  26009.19142266  .00678273  19479-3  17950-2 0  9998
2 61783  97.2964 248.8590 0008008 103.0885 257.1284 15.94647359113345
HADES-R (SO-124)
1 62690U 25009CK  26013.01894461  .00277441  00000-0  18049-2 0  9993
2 62690  97.3765 102.1587 0004368 300.9470  59.1365 15.75134816 55673
HYDRA-T
1 62692U 25009CM  26014.20275781  .00389992  00000-0  18987-2 0  9991
2 62692  97.3754 103.7761 0005766 293.8024  66.2640 15.81356323 55886
JINJUSat 1B
1 63210U 25052A   26014.15111763  .00009590  00000-0  35453-3 0  9990
2 63210  97.4190 271.1304 0001671 293.3069  66.7994 15.27922090 46535
NUSHSAT 1
1 63211U 25052B   26014.64546761  .00010496  00000-0  37296-3 0  9999
2 63211  97.4175 271.7937 0001671 303.5544  56.5537 15.29197087 46621
TEVEL2-4
1 63213U 25052D   26013.67980175  .00010542  00000-0  38372-3 0  9992
2 63213  97.4093 270.3139 0001781 350.1281   9.9923 15.28404406 46467
TEVEL2-5
1 63214U 25052E   26014.14528057  .00010425  00000-0  38044-3 0  9999
2 63214  97.4090 270.7602 0001812 348.1232  11.9964 15.28324057 46531
TEVEL2-6
1 63215U 25052F   26014.21904719  .00010304  00000-0  37658-3 0  9997
2 63215  97.4092 270.8208 0001900 346.1002  14.0185 15.28279782 46542
TEVEL2-1
1 63217U 25052H   26014.13799338  .00009647  00000-0  35662-3 0  9990
2 63217  97.4063 270.5230 0002537 357.8986   2.2242 15.27918709 46520
TEVEL2-3
1 63218U 25052J   26013.67825296  .00010425  00000-0  38491-3 0  9991
2 63218  97.4069 270.0739 0002672   0.0279   0.0960 15.27937740 46459
TEVEL2-2
1 63219U 25052K   26013.68028823  .00010176  00000-0  37609-3 0  9997
2 63219  97.4066 270.0689 0002641   0.9448 359.1796 15.27912701 46459
TEVEL2-9
1 63237U 25052AD  26014.26538611  .00009794  00000-0  37926-3 0  9999
2 63237  97.4131 270.3088 0006548 346.0050  14.1006 15.26357816 46508
TEVEL2-7
1 63238U 25052AE  26014.21718605  .00009294  00000-0  36198-3 0  9993
2 63238  97.4131 270.2280 0006577 346.5616  13.5446 15.26183262 46498
TEVEL2-8
1 63239U 25052AF  26014.22336420  .00009323  00000-0  36337-3 0  9994
2 63239  97.4133 270.2173 0006601 347.3178  12.7893 15.26158579 46492
HYDRA-W
1 63490U 25052BL  26014.62322288  .00048402  00000-0  95319-3 0  9990
2 63490  97.4039 274.0020 0005759 346.1758  13.9333 15.47069804 46793
HADES-ICM (SO-125)
1 63492U 25052BN  26014.14883604  .00047502  00000-0  10280-2 0  9996
2 63492  97.4050 273.1390 0006804 347.4189  12.6888 15.44299454 46695
Dragonfly
1 65729U 98067XH  26014.14161089  .00306440  00000-0  10229-2 0  9995
2 65729  51.6210 328.0787 0007989 107.8610 252.3267 15.88809405 18281
RSP-03
1 65732U 98067XL  26014.25265592  .00165783  00000-0  86153-3 0  9998
2 65732  51.6257 329.6097 0005865  87.9483 272.2190 15.79933026 18287
GHS-01
1 65733U 98067XM  26014.22423890  .00764699  28839-3  13028-2 0  9997
2 65733  51.6220 325.6179 0007844 124.1093 236.0662 16.01928812 18336
BOTAN
1 65942U 98067XP  26014.18145836  .00110159  00000-0  83178-3 0  9992
2 65942  51.6262 334.4147 0004803 100.6550 259.4989 15.71604384 14952
CEVROSAT1
1 66309U 25248S   26014.56677657  .00002450  00000-0  12960-3 0  9999
2 66309  45.4029 224.2856 0003542 260.8102  99.2384 15.18584393 11141
SPIRONE
1 66657U 25274H   26014.32590415  .00001404  00000-0  14151-3 0  9996
2 66657  97.7406 305.9805 0012643 159.0054 201.1687 14.92672146  7267
K-HERO
1 66660U 25274L   26014.37653886  .00001020  00000-0  10302-3 0  9995
2 66660  97.7417 306.0716 0014387 164.0355 196.1321 14.93164966  7279
SNUGLITE-III DURI
1 66661U 25274M   26014.37213277  .00001150  00000-0  11508-3 0  9995
2 66661  97.7416 306.0760 0014963 165.2400 194.9259 14.93286878  7275
SilverSat
1 66909U 98067XV  26014.32627940  .00059095  00000-0  80426-3 0  9997
2 66909  51.6311 339.8918 0003813  65.7143 294.4246 15.56976971  6688
SAKHACUBE-CHOLBON
1 67290U 25313AU  26014.45009283  .00006048  00000-0  27198-3 0  9990
2 67290  97.4117  91.6536 0010202 169.4521 190.6930 15.21438058  2577
QMR-KWT
1 67291U 25313AV  26014.44967426  .00006691  00000-0  30006-3 0  9998
2 67291  97.4116  91.6540 0010096 169.5511 190.5937 15.21497149  2575
1 40931U          25360.30710720  .00000000  00000-0  12800-3 0    00
2 40931   6.0006 332.5373 0012733 338.8432   8.1437 14.79075515    01
